This demonstration page uses our WeatherBlox Daily Observations layout. Learn more.

Hourly Observations for December 30, 2015

Temp ( °F °C ) Dew Point ( °F °C ) Humidity (%) Winds ( mph kmh ) Pressure ( in mb ) Visibility ( mi km ) Precip ( " mm )
12:15 am 00:15 Cloudy with Mist and Fog 23 -4.8 22 -5.7 94 94 Calm 30.27 1025 3 4.82802 0 0
12:35 am 00:35 Cloudy with Mist and Fog 23 -4.8 22 -5.7 94 94 Calm 30.27 1025 3 4.82802 0 0
12:55 am 00:55 Cloudy with Mist and Fog 23 -4.9 22 -5.6 95 95 Calm 30.27 1025 3 4.82802 0 0
1:15 am 01:15 Cloudy with Mist and Fog 23 -5 22 -5.6 96 96 Calm 30.27 1025 4 6.43736 0 0
1:35 am 01:35 Cloudy with Light Snow 23 -5 22 -5.6 96 96 Calm 30.27 1025 4 6.43736 0 0
1:55 am 01:55 Cloudy with Light Snow 23 -4.8 22 -5.6 94 94 Calm 30.27 1025 5 8.0467 0 0
2:15 am 02:15 Cloudy with Light Snow 23 -5 22 -5.7 95 95 Calm 30.27 1025 3 4.82802 0 0
2:35 am 02:35 Cloudy with Light Snow 23 -5.2 21 -6 94 94 Calm 30.27 1025 3 4.82802 0 0
2:55 am 02:55 Mostly Cloudy with Scattered Snow Showers 22 -5.7 20 -6.5 94 94 Calm 30.3 1026 3 4.82802 0 0
3:15 am 03:15 Partly Cloudy with Scattered Snow Showers 21 -6 20 -6.7 95 95 Calm 30.3 1026 4 6.43736 0 0
3:35 am 03:35 Partly Cloudy 22 -5.8 20 -6.6 94 94 Calm 30.3 1026 7 11.26538 0 0
3:55 am 03:55 Mostly Cloudy 22 -5.7 20 -6.5 94 94 Calm 30.3 1026 10 16.0934 0 0
4:15 am 04:15 Cloudy 22 -5.4 21 -6.1 95 95 Calm 30.27 1025 7 11.26538 0 0
4:35 am 04:35 Cloudy 23 -5.1 21 -6 93 93 Calm 30.27 1025 10 16.0934 0 0
4:55 am 04:55 Cloudy 23 -5 22 -5.7 95 95 Calm 30.27 1025 10 16.0934 0 0
5:15 am 05:15 Cloudy 23 -5 22 -5.7 95 95 Calm 30.27 1025 10 16.0934 0 0
5:35 am 05:35 Cloudy 23 -5 22 -5.8 94 94 Calm 30.27 1025 7 11.26538 0 0
5:55 am 05:55 Cloudy 23 -5 22 -5.7 95 95 Calm 30.27 1025 10 16.0934 0 0
6:15 am 06:15 Cloudy 23 -5.1 21 -5.9 94 94 SSW 3 6 30.27 1025 10 16.0934 0 0
6:35 am 06:35 Cloudy 23 -4.8 22 -5.6 94 94 Calm 30.3 1026 10 16.0934 0 0
6:55 am 06:55 Cloudy 24 -4.7 22 -5.5 94 94 Calm 30.3 1026 10 16.0934 0 0
7:15 am 07:15 Cloudy 24 -4.7 22 -5.5 94 94 Calm 30.3 1026 7 11.26538 0 0
7:35 am 07:35 Cloudy 24 -4.6 22 -5.5 94 94 Calm 30.3 1026 7 11.26538 0 0
7:55 am 07:55 Cloudy 24 -4.5 22 -5.3 94 94 Calm 30.3 1026 7 11.26538 0 0
8:15 am 08:15 Cloudy 24 -4.5 23 -5.2 95 95 Calm 30.3 1026 10 16.0934 0 0
8:35 am 08:35 Cloudy 24 -4.5 23 -5.2 95 95 Calm 30.3 1026 10 16.0934 0 0
8:55 am 08:55 Cloudy 24 -4.3 23 -5.1 94 94 SW 3 6 30.33 1027 10 16.0934 0 0
9:15 am 09:15 Cloudy 24 -4.4 23 -5.1 95 95 Calm 30.33 1027 10 16.0934 0 0
9:35 am 09:35 Cloudy 24 -4.5 22 -5.4 94 94 Calm 30.33 1027 10 16.0934 0 0
9:55 am 09:55 Cloudy 24 -4.5 22 -5.5 93 93 Calm 30.33 1027 10 16.0934 0 0
10:15 am 10:15 Cloudy 24 -4.5 22 -5.5 93 93 Calm 30.33 1027 10 16.0934 0 0
10:35 am 10:35 Cloudy 24 -4.2 23 -5.2 93 93 Calm 30.33 1027 10 16.0934 0 0
10:55 am 10:55 Cloudy 24 -4.4 22 -5.5 92 92 Calm 30.33 1027 10 16.0934 0 0
11:15 am 11:15 Cloudy 24 -4.3 22 -5.3 93 93 WSW 7 11 30.33 1027 10 16.0934 0 0
11:35 am 11:35 Cloudy 24 -4.3 23 -5.2 94 94 WSW 3 6 30.33 1027 10 16.0934 0 0
11:55 am 11:55 Cloudy 24 -4.2 23 -5.1 94 94 WSW 3 6 30.33 1027 7 11.26538 0 0
12:15 pm 12:15 Cloudy 25 -3.8 23 -4.8 93 93 SW 5 7 30.33 1027 10 16.0934 0 0
12:35 pm 12:35 Cloudy 26 -3.6 23 -5 90 90 W 7 11 30.3 1026 10 16.0934 0 0
12:55 pm 12:55 Cloudy 26 -3.4 23 -5 89 89 WSW 3 6 30.3 1026 10 16.0934 0 0
1:15 pm 13:15 Cloudy 26 -3.3 23 -4.9 89 89 W 6 9 30.3 1026 10 16.0934 0 0
1:35 pm 13:35 Cloudy 26 -3.3 23 -5 88 88 WSW 5 7 30.3 1026 10 16.0934 0 0
1:55 pm 13:55 Cloudy 26 -3.6 23 -5.2 89 89 W 8 13 30.3 1026 10 16.0934 0 0
2:15 pm 14:15 Cloudy 25 -3.7 23 -5.2 89 89 WSW 5 7 30.3 1026 10 16.0934 0 0
2:35 pm 14:35 Cloudy 25 -3.7 22 -5.6 87 87 W 8 13 30.27 1025 10 16.0934 0 0
2:55 pm 14:55 Cloudy 25 -3.7 22 -5.7 86 86 W 5 7 30.27 1025 10 16.0934 0 0
3:15 pm 15:15 Cloudy 26 -3.4 21 -5.9 83 83 W 6 9 30.3 1026 10 16.0934 0 0
3:35 pm 15:35 Mostly Cloudy 27 -3 21 -5.9 81 81 WSW 3 6 30.27 1025 10 16.0934 0 0
3:55 pm 15:55 Mostly Cloudy 26 -3.3 21 -6.1 81 81 Calm 30.3 1026 10 16.0934 0 0
4:15 pm 16:15 Mostly Cloudy 27 -2.8 21 -6 79 79 SW 3 6 30.3 1026 10 16.0934 0 0
4:35 pm 16:35 Mostly Cloudy 26 -3.3 21 -6.2 81 81 SSW 5 7 30.3 1026 10 16.0934 0 0
4:55 pm 16:55 Partly Cloudy 25 -3.7 21 -6.2 83 83 Calm 30.3 1026 10 16.0934 0 0
5:15 pm 17:15 Sunny 24 -4.2 20 -6.6 84 84 SW 3 6 30.3 1026 10 16.0934 0 0
5:35 pm 17:35 Clear 23 -4.8 20 -6.9 85 85 SSW 3 6 30.3 1026 10 16.0934 0 0
5:55 pm 17:55 Clear 22 -5.3 19 -7 88 88 Calm 30.36 1028 10 16.0934 0 0
6:15 pm 18:15 Clear 21 -6.2 18 -7.6 90 90 Calm 30.36 1028 10 16.0934 0 0
6:35 pm 18:35 Clear 20 -6.5 18 -7.6 92 92 Calm 30.36 1028 10 16.0934 0 0
6:55 pm 18:55 Clear 19 -7 18 -8 93 93 Calm 30.36 1028 7 11.26538 0 0
7:15 pm 19:15 Clear 19 -7.5 17 -8.6 92 92 Calm 30.36 1028 7 11.26538 0 0
7:35 pm 19:35 Clear 18 -7.9 16 -8.8 93 93 Calm 30.42 1030 7 11.26538 0 0
7:55 pm 19:55 Clear 18 -7.8 16 -8.7 93 93 Calm 30.42 1030 7 11.26538 0 0
8:15 pm 20:15 Clear with Mist and Fog 18 -8 16 -8.9 93 93 Calm 30.42 1030 5 8.0467 0 0
8:35 pm 20:35 Partly Cloudy with Mist and Fog 16 -9.1 14 -10.1 93 93 Calm 30.42 1030 3 4.82802 0 0
8:55 pm 20:55 Clear 17 -8.6 15 -9.7 92 92 Calm 30.42 1030 7 11.26538 0 0
9:15 pm 21:15 Clear 15 -9.3 13 -10.4 92 92 Calm 30.42 1030 7 11.26538 0 0
9:35 pm 21:35 Clear 14 -9.8 12 -11 91 91 Calm 30.42 1030 10 16.0934 0 0
9:55 pm 21:55 Partly Cloudy 14 -10 12 -11.2 91 91 Calm 30.42 1030 10 16.0934 0 0
10:15 pm 22:15 Partly Cloudy 14 -10 12 -11.2 91 91 Calm 30.42 1030 7 11.26538 0 0
10:35 pm 22:35 Partly Cloudy 14 -10 12 -11.2 91 91 Calm 30.42 1030 7 11.26538 0 0
10:55 pm 22:55 Clear with Mist and Fog 13 -10.5 11 -11.8 90 90 Calm 30.42 1030 4 6.43736 0 0
11:15 pm 23:15 Clear 13 -10.7 10 -12 90 90 Calm 30.45 1031 7 11.26538 0 0
11:35 pm 23:35 Clear with Mist and Fog 13 -10.6 11 -11.8 91 91 Calm 30.45 1031 5 8.0467 0 0
11:55 pm 23:55 Clear 13 -10.5 11 -11.7 91 91 Calm 30.42 1030 7 11.26538 0 0

Powered by AerisWeather